TimeCST,TemperatureF,Dew PointF,Humidity,Sea Level PressureIn,VisibilityMPH,Wind Direction,Wind SpeedMPH,Gust SpeedMPH,PrecipitationIn,Events,Conditions,WindDirDegrees,DateUTC
12:15 AM,6.8,3.2,85,30.25,10.0,SSW,17.3,-,N/A,,Clear,200,2013-11-24 06:15:00
12:35 AM,6.8,1.4,79,30.23,10.0,SSW,16.1,-,N/A,,Clear,200,2013-11-24 06:35:00
12:55 AM,6.8,3.2,85,30.21,10.0,SSW,11.5,-,N/A,,Clear,200,2013-11-24 06:55:00
1:15 AM,6.8,3.2,85,30.19,10.0,South,12.7,-,N/A,,Clear,190,2013-11-24 07:15:00
1:35 AM,6.8,3.2,85,30.18,10.0,SSW,15.0,-,N/A,,Clear,200,2013-11-24 07:35:00
1:55 AM,6.8,5.0,92,30.16,10.0,SSW,13.8,-,N/A,,Clear,200,2013-11-24 07:55:00
2:15 AM,8.6,5.0,85,30.14,10.0,South,11.5,-,N/A,,Clear,190,2013-11-24 08:15:00
2:35 AM,10.4,6.8,85,30.11,10.0,South,13.8,-,N/A,,Clear,180,2013-11-24 08:35:00
2:55 AM,10.4,6.8,85,30.10,10.0,South,13.8,19.6,N/A,,Clear,190,2013-11-24 08:55:00
3:15 AM,10.4,6.8,85,30.09,10.0,South,15.0,-,N/A,,Clear,180,2013-11-24 09:15:00
3:35 AM,8.6,6.8,92,30.07,10.0,South,11.5,-,N/A,,Clear,180,2013-11-24 09:35:00
3:55 AM,10.4,6.8,85,30.06,10.0,South,9.2,-,N/A,,Clear,190,2013-11-24 09:55:00
4:15 AM,10.4,6.8,85,30.05,10.0,South,9.2,-,N/A,,Clear,180,2013-11-24 10:15:00
4:35 AM,10.4,8.6,92,30.02,10.0,South,12.7,-,N/A,,Clear,180,2013-11-24 10:35:00
4:55 AM,10.4,8.6,92,30.00,10.0,South,13.8,-,N/A,,Clear,180,2013-11-24 10:55:00
5:15 AM,10.4,8.6,92,29.99,10.0,South,13.8,-,N/A,,Clear,180,2013-11-24 11:15:00
5:35 AM,10.4,8.6,92,29.96,10.0,South,15.0,-,N/A,,Clear,180,2013-11-24 11:35:00
5:55 AM,12.2,8.6,85,29.95,10.0,South,17.3,-,N/A,,Clear,190,2013-11-24 11:55:00
6:15 AM,12.2,8.6,85,29.91,10.0,SSW,19.6,24.2,N/A,,Clear,200,2013-11-24 12:15:00
6:35 AM,12.2,8.6,85,29.90,10.0,SSW,20.7,-,N/A,,Clear,200,2013-11-24 12:35:00
6:55 AM,12.2,8.6,85,29.89,10.0,SSW,17.3,-,N/A,,Clear,200,2013-11-24 12:55:00
7:15 AM,12.2,10.4,92,29.87,10.0,South,12.7,18.4,N/A,,Clear,190,2013-11-24 13:15:00
7:35 AM,12.2,8.6,85,29.86,10.0,South,10.4,-,N/A,,Clear,180,2013-11-24 13:35:00
7:55 AM,12.2,8.6,85,29.87,10.0,South,5.8,-,N/A,,Clear,170,2013-11-24 13:55:00
8:15 AM,15.8,12.2,86,29.85,10.0,SSW,13.8,-,N/A,,Clear,200,2013-11-24 14:15:00
8:35 AM,15.8,12.2,86,29.84,10.0,SSW,11.5,-,N/A,,Clear,210,2013-11-24 14:35:00
8:55 AM,15.8,14.0,93,29.83,10.0,SW,15.0,19.6,N/A,,Clear,220,2013-11-24 14:55:00
9:15 AM,17.6,14.0,86,29.83,10.0,SW,17.3,21.9,N/A,,Clear,220,2013-11-24 15:15:00
9:35 AM,19.4,14.0,80,29.82,10.0,SW,16.1,-,N/A,,Clear,230,2013-11-24 15:35:00
9:55 AM,19.4,15.8,86,29.82,10.0,SW,13.8,-,N/A,,Clear,220,2013-11-24 15:55:00
10:15 AM,19.4,15.8,86,29.82,10.0,SSW,11.5,-,N/A,,Clear,210,2013-11-24 16:15:00
10:35 AM,19.4,15.8,86,29.80,10.0,SW,17.3,-,N/A,,Clear,220,2013-11-24 16:35:00
10:55 AM,21.2,15.8,80,29.80,10.0,WSW,17.3,-,N/A,,Clear,240,2013-11-24 16:55:00
11:15 AM,23.0,17.6,80,29.79,10.0,West,10.4,-,N/A,,Clear,260,2013-11-24 17:15:00
11:35 AM,23.0,17.6,80,29.77,10.0,WSW,15.0,-,N/A,,Partly Cloudy,240,2013-11-24 17:35:00
11:55 AM,24.8,17.6,74,29.74,10.0,WSW,19.6,-,N/A,,Partly Cloudy,240,2013-11-24 17:55:00
12:15 PM,24.8,19.4,80,29.77,10.0,WSW,9.2,-,N/A,,Mostly Cloudy,240,2013-11-24 18:15:00
12:35 PM,26.6,19.4,74,29.75,10.0,WSW,15.0,-,N/A,,Overcast,250,2013-11-24 18:35:00
12:55 PM,26.6,19.4,74,29.74,10.0,SW,10.4,25.3,N/A,,Mostly Cloudy,220,2013-11-24 18:55:00
1:15 PM,26.6,19.4,74,29.72,10.0,SW,17.3,-,N/A,,Overcast,230,2013-11-24 19:15:00
1:35 PM,28.4,21.2,74,29.72,10.0,WSW,18.4,-,N/A,,Overcast,240,2013-11-24 19:35:00
1:55 PM,28.4,23.0,80,29.72,10.0,WSW,18.4,24.2,N/A,,Scattered Clouds,240,2013-11-24 19:55:00
2:15 PM,32.0,23.0,69,29.72,10.0,WSW,21.9,25.3,N/A,,Clear,250,2013-11-24 20:15:00
2:35 PM,32.0,23.0,69,29.72,10.0,WSW,19.6,-,N/A,,Clear,250,2013-11-24 20:35:00
2:55 PM,32.0,24.8,75,29.71,10.0,WSW,20.7,-,N/A,,Clear,250,2013-11-24 20:55:00
3:15 PM,32.0,24.8,75,29.72,10.0,WSW,16.1,-,N/A,,Clear,250,2013-11-24 21:15:00
3:35 PM,32.0,24.8,75,29.72,10.0,WSW,13.8,-,N/A,,Clear,250,2013-11-24 21:35:00
3:55 PM,35.6,26.6,70,29.72,10.0,West,15.0,19.6,N/A,,Clear,270,2013-11-24 21:55:00
4:15 PM,35.6,24.8,65,29.73,10.0,West,18.4,23.0,N/A,,Clear,280,2013-11-24 22:15:00
4:35 PM,35.6,24.8,65,29.73,10.0,West,16.1,-,N/A,,Clear,280,2013-11-24 22:35:00
4:55 PM,33.8,24.8,70,29.73,10.0,West,15.0,-,N/A,,Clear,260,2013-11-24 22:55:00
5:15 PM,33.8,24.8,70,29.73,10.0,West,16.1,-,N/A,,Clear,270,2013-11-24 23:15:00
5:35 PM,32.0,24.8,75,29.73,10.0,West,17.3,-,N/A,,Clear,270,2013-11-24 23:35:00
5:55 PM,32.0,24.8,75,29.73,10.0,West,15.0,-,N/A,,Clear,270,2013-11-24 23:55:00
6:15 PM,32.0,24.8,75,29.72,10.0,West,13.8,20.7,N/A,,Clear,260,2013-11-25 00:15:00
6:35 PM,30.2,24.8,80,29.72,10.0,WSW,11.5,-,N/A,,Clear,250,2013-11-25 00:35:00
6:55 PM,33.8,26.6,75,29.72,10.0,West,16.1,21.9,N/A,,Clear,280,2013-11-25 00:55:00
7:15 PM,33.8,26.6,75,29.72,10.0,WNW,16.1,23.0,N/A,,Clear,290,2013-11-25 01:15:00
7:35 PM,35.6,26.6,70,29.73,10.0,WNW,19.6,27.6,N/A,,Clear,300,2013-11-25 01:35:00
7:55 PM,35.6,26.6,70,29.73,10.0,NW,23.0,33.4,N/A,,Clear,310,2013-11-25 01:55:00
8:15 PM,35.6,26.6,70,29.74,10.0,NW,24.2,32.2,N/A,,Scattered Clouds,310,2013-11-25 02:15:00
8:35 PM,33.8,26.6,75,29.74,10.0,NW,29.9,38.0,N/A,,Scattered Clouds,310,2013-11-25 02:35:00
8:55 PM,32.0,26.6,80,29.74,10.0,NW,28.8,39.1,N/A,,Clear,310,2013-11-25 02:55:00
9:15 PM,32.0,26.6,80,29.75,10.0,NW,26.5,33.4,N/A,,Clear,310,2013-11-25 03:15:00
9:35 PM,32.0,26.6,80,29.76,10.0,NW,25.3,33.4,N/A,,Partly Cloudy,310,2013-11-25 03:35:00
9:55 PM,32.0,26.6,80,29.77,10.0,WNW,26.5,33.4,N/A,,Clear,300,2013-11-25 03:55:00
10:15 PM,32.0,26.6,80,29.78,10.0,NW,25.3,36.8,N/A,,Clear,310,2013-11-25 04:15:00
10:35 PM,32.0,26.6,80,29.78,10.0,NW,25.3,31.1,N/A,,Partly Cloudy,310,2013-11-25 04:35:00
10:55 PM,32.0,26.6,80,29.79,10.0,NW,21.9,-,N/A,,Clear,320,2013-11-25 04:55:00
11:15 PM,32.0,24.8,75,29.79,10.0,NW,19.6,24.2,N/A,,Clear,310,2013-11-25 05:15:00
11:35 PM,32.0,24.8,75,29.79,10.0,WNW,24.2,28.8,N/A,,Clear,300,2013-11-25 05:35:00
11:55 PM,32.0,24.8,75,29.79,10.0,WNW,19.6,28.8,N/A,,Clear,300,2013-11-25 05:55:00